Content
SEND FEEDBACK

Daily
Averages
Monthly
Summary
United States of America

CHESAPEAKE RANCH ESTATES, MARYLAND


Home > North America > United States > Maryland
Elevation: 36 feet     Latitude: 38 19N     Longitude: 076 25W

WEATHER
 
SELECT A DAY
Number of Records: 71,674;   Date Range: 1/1/95 - 11/27/14
 
SHARE

PRINT THIS DATA

[ ← Previous Day ]
WEATHER ALMANAC - JANUARY 31, 2013
[ Next Day → ]
[ °C ]   °F
Weather ElementAverageHighLow
Temperature50.4 °F62.6 °F (2:13 am)33.1 °F (11:52 pm)
Dewpoint34 °F60.8 °F (2:22 am)12.9 °F (7:52 pm)
Humidity56.9 %94 % (2:22 am)28 % (3:52 pm)
Barometer29.55 in29.95 in (11:52 pm)29.18 in (1:52 am)
Wind Speed18 mph29.9 mph (2:10 am)
Wind Gust40.3 mph (3:52 pm)
Weather ElementAverage
Visibility8.3 mi
Wind DirectionWSW (246.3 °)

Weather ElementTotal
Precipitation2.28 in
Heating Degree Days17.2 (Base 65)
Averaged from 30 records on January 31, 2013
WEATHER CONDITIONS BREAKOUT
WIND DIRECTION BREAKOUT
WEATHER BY HOUR - JANUARY 31, 2013
[ °C ]   °F
Local TimeTemperatureDewpointHumidityBarometerVisibilityWind DirectionWind SpeedGust SpeedPrecipitationEventsConditions
1:52 AM55.9 °F52.0 °F87 %29.18 in8.0 miSE (130°)17.3 mph26.5 mph0.01 inRainRain
2:10 AM59.0 °F55.4 °F88 %29.29 in1.8 miWSW (240°)29.9 mph38.0 mph0.16 inRainHeavy Rain
2:13 AM62.6 °F59.0 °F88 %29.27 in1.0 miSW (220°)21.9 mph38.0 mph0.31 inRainHeavy Rain
2:22 AM62.6 °F60.8 °F94 %29.26 in1.8 miSSW (210°)18.4 mph28.8 mph0.36 inRainHeavy Rain
2:25 AM62.6 °F60.8 °F94 %29.26 in3.0 miSSW (210°)13.8 mph25.3 mph0.37 inRainRain
2:42 AM62.6 °F59.0 °F88 %29.27 in3.0 miWest (260°)19.6 mph28.8 mph0.44 inRainHeavy Rain
2:52 AM61.0 °F55.9 °F83 %29.28 in3.0 miWSW (240°)16.1 mph29.9 mph0.49 inRainHeavy Rain
3:29 AM59.0 °F53.6 °F82 %29.26 in7.0 miSW (220°)11.5 mph24.2 mph0.06 inRainRain
3:52 AM57.9 °F53.1 °F84 %29.26 in10.0 miSSW (210°)15.0 mph28.8 mph0.06 inRainLight Rain
4:52 AM55.9 °F48.9 °F77 %29.29 in10.0 miSW (220°)19.6 mph31.1 mph0.02 inOvercast
5:14 AM57.2 °F46.4 °F67 %29.30 in10.0 miSW (220°)17.3 mph29.9 mphMostly Cloudy
5:52 AM55.0 °F45.0 °F69 %29.34 in10.0 miSW (230°)18.4 mph27.6 mphMostly Cloudy
6:52 AM53.1 °F36.0 °F52 %29.42 in10.0 miWest (270°)21.9 mph28.8 mphOvercast
7:52 AM50.0 °F32.0 °F50 %29.49 in10.0 miWest (270°)16.1 mph27.6 mphMostly Cloudy
8:52 AM50.0 °F30.0 °F46 %29.55 in10.0 miWest (260°)21.9 mph34.5 mphMostly Cloudy
9:52 AM48.0 °F24.1 °F39 %29.60 in10.0 miWest (270°)26.5 mph34.5 mphScattered Clouds
10:52 AM48.9 °F26.1 °F41 %29.64 in10.0 miWSW (250°)24.2 mph31.1 mphScattered Clouds
11:52 AM48.9 °F24.1 °F38 %29.65 in10.0 miWSW (240°)21.9 mph32.2 mphScattered Clouds
12:52 PM50.0 °F23.0 °F35 %29.66 in10.0 miWSW (240°)21.9 mph32.2 mphScattered Clouds
1:52 PM48.0 °F18.0 °F30 %29.68 in10.0 miWSW (250°)25.3 mph38.0 mphScattered Clouds
2:52 PM48.0 °F18.0 °F30 %29.70 in10.0 miWSW (250°)26.5 mph33.4 mphMostly Cloudy
3:52 PM46.9 °F15.1 °F28 %29.73 in10.0 miWSW (240°)26.5 mph40.3 mphMostly Cloudy
4:52 PM45.0 °F16.0 °F31 %29.78 in10.0 miWest (270°)18.4 mph25.3 mphMostly Cloudy
5:52 PM42.1 °F18.0 °F38 %29.82 in10.0 miWest (260°)13.8 mph23.0 mphMostly Cloudy
6:52 PM41.0 °F14.0 °F33 %29.86 in10.0 miWSW (250°)13.8 mph24.2 mphScattered Clouds
7:52 PM39.9 °F12.9 °F33 %29.89 in10.0 miWest (260°)12.7 mph20.7 mphScattered Clouds
8:52 PM39.0 °F14.0 °F36 %29.90 in10.0 miWest (270°)11.5 mphPartly Cloudy
9:52 PM36.0 °F15.1 °F43 %29.92 in10.0 miWest (280°)8.1 mphPartly Cloudy
10:52 PM34.0 °F18.0 °F52 %29.94 in10.0 miNW (320°)5.8 mphClear
11:52 PM33.1 °F16.0 °F50 %29.95 in10.0 miNNW (330°)3.5 mphPartly Cloudy
Hourly data recorded from KNHK, located miles away from Chesapeake Ranch Estates, Maryland







STORIES FROM OUR PARTNERS